Location: Saalfelden+am+Steinernen+Meer
(47.4274°N, 12.8411°E)
Time: 03:24:39
(UTC+02:00)

ISS - Visible Passes

Search period start: 01 July 2022 00:00
Search period end: 11 July 2022 00:00
Orbit: 414 x 420 km, 51.6° (Epoch: 30 June)

Date Brightness Start Highest point End Pass type
(mag) Time Alt. Az. Time Alt. Az. Time Alt. Az.
01 Jul -2.9 03:22:08 25° S 03:23:26 36° SE 03:26:34 10° ENE visible
02 Jul -2.3 02:35:35 24° SE 02:35:35 24° SE 02:38:09 10° E visible
02 Jul -3.6 04:08:32 10° WSW 04:11:54 73° NNW 04:15:16 10° ENE visible
03 Jul -1.2 01:48:58 12° ESE 01:48:58 12° ESE 01:49:26 10° E visible
03 Jul -3.8 03:21:51 25° WSW 03:23:41 81° SSE 03:27:04 10° ENE visible
04 Jul -3.6 02:35:10 51° S 02:35:30 54° SSE 02:38:48 10° ENE visible
04 Jul -2.8 04:09:05 10° W 04:12:20 46° NNW 04:15:37 10° ENE visible
05 Jul -2.3 01:48:26 27° ESE 01:48:26 27° ESE 01:50:28 10° ENE visible
05 Jul -3.2 03:21:20 14° W 03:24:02 57° NNW 03:27:22 10° ENE visible
06 Jul -1.2 01:01:38 12° E 01:01:38 12° E 01:01:58 10° E visible
06 Jul -3.7 02:34:31 36° W 02:35:45 75° NNW 02:39:07 10° ENE visible
06 Jul -2.3 04:09:37 10° WNW 04:12:48 38° N 04:16:00 10° ENE visible
07 Jul -3.9 01:47:38 74° ESE 01:47:38 74° ESE 01:50:51 10° ENE visible
07 Jul -2.5 03:21:14 10° W 03:24:26 41° N 03:27:39 10° ENE visible
08 Jul -2.4 01:00:40 28° E 01:00:40 28° E 01:02:31 10° ENE visible
08 Jul -2.8 02:33:32 15° W 02:36:04 47° NNW 02:39:20 10° ENE visible
08 Jul -2.4 04:10:01 10° WNW 04:13:14 41° N 04:16:27 10° E visible
09 Jul -1.3 00:13:35 13° E 00:13:35 13° E 00:14:07 10° ENE visible
09 Jul -3.2 01:46:26 33° W 01:47:42 58° NNW 01:51:02 10° ENE visible
09 Jul -2.3 03:21:38 10° WNW 03:24:49 38° N 03:28:00 10° ENE visible
10 Jul -3.7 00:59:06 71° WNW 00:59:22 78° NNW 01:02:43 10° ENE visible
10 Jul -2.3 02:33:13 10° WNW 02:36:24 38° N 02:39:35 10° ENE visible
10 Jul -3.0 04:10:12 10° WNW 04:13:32 57° NNE 04:16:51 10° E visible
